Location: Cuzcurrita-R�o Tir�n
(42.5415°N, 2.9642°W)
Time: 18:49:40
(UTC+00:00)

ATLAS 3B R/B - Pass Details

Date: 17 January 2021
Orbit: 1006 x 1189 km, 63.8° (Epoch: 26 February)

Event Time Altitude Azimuth Distance (km) Brightness Sun altitude
Rises 17:29:49 0° 326° (NW) 3,860 5.8 -4.7°
Reaches altitude 10° 17:32:27 10° 329° (NNW) 2,927 5.1 -5.1°
Maximum altitude 17:39:22 63° 51° (NE) 1,234 2.8 -6.3°
Drops below altitude 10° 17:46:34 10° 132° (SE) 3,044 4.8 -7.5°
Sets 17:49:22 0° 135° (SE) 4,023 5.5 -8.0°
